Time,TemperatureF,DewpointF,PressureIn,WindDirection,WindDirectionDegrees,WindSpeedMPH,WindSpeedGustMPH,Humidity,HourlyPrecipIn,Conditions,Clouds,dailyrainin,SolarRadiationWatts/m^2,SoftwareType,DateUTC
2013-02-14 00:00:00,28.0,19.0,-100.00,WNW,287,3.0,6.0,68,-99.99,,,-99.99,-0.200000,,2013-02-14 08:00:00,
2013-02-14 01:00:00,24.0,16.0,-100.00,West,280,1.0,4.0,73,-99.99,,,-99.99,-0.200000,,2013-02-14 09:00:00,
2013-02-14 01:52:00,24.0,16.0,-100.00,West,280,1.0,4.0,73,-99.99,,,-99.99,-0.200000,,2013-02-14 09:52:00,
2013-02-14 02:00:00,28.0,20.0,-100.00,WNW,297,3.0,5.0,72,-99.99,,,-99.99,-5.100000,,2013-02-14 10:00:00,
2013-02-14 02:52:00,28.0,20.0,-100.00,WNW,297,3.0,5.0,72,-99.99,,,-99.99,-5.100000,,2013-02-14 10:52:00,
2013-02-14 03:00:00,30.0,22.0,-100.00,West,267,3.0,5.0,72,-99.99,,,-99.99,-0.200000,,2013-02-14 11:00:00,
2013-02-14 03:52:00,30.0,22.0,-100.00,West,267,3.0,5.0,72,-99.99,,,-99.99,-0.200000,,2013-02-14 11:52:00,
2013-02-14 04:00:00,31.0,24.0,-100.00,WNW,298,3.0,5.0,74,-99.99,,,0.00,-0.200000,,2013-02-14 12:00:00,
2013-02-14 04:53:00,31.0,24.0,-100.00,WNW,298,3.0,5.0,74,-99.99,,,0.00,-0.200000,,2013-02-14 12:53:00,
2013-02-14 05:00:00,32.0,25.0,-100.00,West,281,3.0,5.0,75,-99.99,,,0.00,-0.200000,,2013-02-14 13:00:00,
2013-02-14 05:52:00,32.0,25.0,-100.00,West,281,3.0,5.0,75,-99.99,,,0.00,-0.200000,,2013-02-14 13:52:00,
2013-02-14 06:00:00,31.0,23.0,-100.00,WNW,302,1.0,2.0,74,-99.99,,,0.00,-0.200000,,2013-02-14 14:00:00,
2013-02-14 06:52:00,31.0,23.0,-100.00,WNW,302,1.0,2.0,74,-99.99,,,0.00,-0.200000,,2013-02-14 14:52:00,
2013-02-14 07:00:00,33.0,26.0,-100.00,West,268,2.0,6.0,76,-99.99,,,0.00,-0.200000,,2013-02-14 15:00:00,
2013-02-14 07:52:00,33.0,26.0,-100.00,West,268,2.0,6.0,76,-99.99,,,0.00,-0.200000,,2013-02-14 15:52:00,
2013-02-14 08:00:00,32.0,27.0,-100.00,WNW,298,2.0,4.0,81,-99.99,,,0.00,16.500000,,2013-02-14 16:00:00,
2013-02-14 08:52:00,32.0,27.0,-100.00,WNW,298,2.0,4.0,81,-99.99,,,0.00,16.500000,,2013-02-14 16:52:00,
2013-02-14 09:00:00,36.0,29.0,-100.00,NW,317,2.0,4.0,77,-99.99,,,0.00,89.000000,,2013-02-14 17:00:00,
2013-02-14 09:52:00,36.0,29.0,-100.00,NW,317,2.0,4.0,77,-99.99,,,0.00,89.000000,,2013-02-14 17:52:00,
2013-02-14 10:00:00,38.0,29.0,-100.00,NNW,343,2.0,5.0,70,-99.99,,,0.00,240.699997,,2013-02-14 18:00:00,
2013-02-14 10:52:00,38.0,29.0,-100.00,NNW,343,2.0,5.0,70,-99.99,,,0.00,240.699997,,2013-02-14 18:52:00,
2013-02-14 11:00:00,39.0,29.0,-100.00,West,264,4.0,6.0,67,-99.99,,,0.00,405.100006,,2013-02-14 19:00:00,
2013-02-14 11:52:00,39.0,29.0,-100.00,West,264,4.0,6.0,67,-99.99,,,0.00,405.100006,,2013-02-14 19:52:00,
2013-02-14 12:00:00,38.0,27.0,-100.00,WNW,292,3.0,5.0,63,-99.99,,,0.00,475.399994,,2013-02-14 20:00:00,
2013-02-14 12:52:00,38.0,27.0,-100.00,WNW,292,3.0,5.0,63,-99.99,,,0.00,475.399994,,2013-02-14 20:52:00,
2013-02-14 13:00:00,40.0,29.0,-100.00,West,270,2.0,5.0,64,-99.99,,,0.00,478.899994,,2013-02-14 21:00:00,
2013-02-14 13:52:00,40.0,29.0,-100.00,West,270,2.0,5.0,64,-99.99,,,0.00,478.899994,,2013-02-14 21:52:00,
2013-02-14 14:00:00,42.0,29.0,-100.00,SW,221,2.0,5.0,60,-99.99,,,0.00,429.200012,,2013-02-14 22:00:00,
2013-02-14 14:52:00,42.0,29.0,-100.00,SW,221,2.0,5.0,60,-99.99,,,0.00,429.200012,,2013-02-14 22:52:00,
2013-02-14 15:00:00,40.0,29.0,-100.00,South,182,2.0,5.0,64,-99.99,,,0.00,344.399994,,2013-02-14 23:00:00,
2013-02-14 15:52:00,40.0,29.0,-100.00,South,182,2.0,5.0,64,-99.99,,,0.00,344.399994,,2013-02-14 23:52:00,
2013-02-14 16:00:00,39.0,30.0,-100.00,NNW,337,3.0,5.0,69,-99.99,,,0.00,184.399994,,2013-02-15 00:00:00,
2013-02-14 16:52:00,39.0,30.0,-100.00,NNW,337,3.0,5.0,69,-99.99,,,0.00,184.399994,,2013-02-15 00:52:00,
2013-02-14 17:00:00,36.0,28.0,-100.00,WSW,258,2.0,6.0,74,-99.99,,,0.00,64.400002,,2013-02-15 01:00:00,
2013-02-14 17:52:00,36.0,28.0,-100.00,WSW,258,2.0,6.0,74,-99.99,,,0.00,64.400002,,2013-02-15 01:52:00,
2013-02-14 18:00:00,34.0,29.0,-100.00,West,260,3.0,6.0,82,-99.99,,,0.00,3.700000,,2013-02-15 02:00:00,
2013-02-14 18:52:00,34.0,29.0,-100.00,West,260,3.0,6.0,82,-99.99,,,0.00,3.700000,,2013-02-15 02:52:00,
2013-02-14 19:00:00,32.0,28.0,-100.00,NW,309,1.0,3.0,84,-99.99,,,0.00,-0.200000,,2013-02-15 03:00:00,
2013-02-14 20:00:00,32.0,28.0,-100.00,WNW,295,1.0,2.0,86,-99.99,,,0.00,-0.200000,,2013-02-15 04:00:00,
2013-02-14 20:52:00,32.0,28.0,-100.00,WNW,295,1.0,2.0,86,-99.99,,,0.00,-0.200000,,2013-02-15 04:52:00,
2013-02-14 21:00:00,35.0,31.0,-100.00,WNW,303,1.0,3.0,86,-99.99,,,0.00,-0.200000,,2013-02-15 05:00:00,
2013-02-14 21:52:00,35.0,31.0,-100.00,WNW,303,1.0,3.0,86,-99.99,,,0.00,-0.200000,,2013-02-15 05:52:00,
2013-02-14 22:00:00,33.0,27.0,-100.00,WNW,302,3.0,7.0,79,-99.99,,,0.00,-0.200000,,2013-02-15 06:00:00,
2013-02-14 22:52:00,33.0,27.0,-100.00,WNW,302,3.0,7.0,79,-99.99,,,0.00,-0.200000,,2013-02-15 06:52:00,
2013-02-14 23:00:00,35.0,31.0,-100.00,WSW,256,1.0,3.0,83,-99.99,,,0.00,-0.200000,,2013-02-15 07:00:00,
2013-02-14 23:52:00,35.0,31.0,-100.00,WSW,256,1.0,3.0,83,-99.99,,,0.00,-0.200000,,2013-02-15 07:52:00,